DEBIF EDNX-EDMS

Flight info

Callsign DEBIF
Flight time 0h 45m
Altitude 8000
Route MAH IFR DCT WLD DCT MAMOR DCT STAUB
Aircraft P28R/L-SDGRY/S

Departure

Time 2026-05-04 19:36
Airport Schleissheim Airfield (EDNX)

Arrival

Time 2026-05-04 20:21
Airport Straubing Airport (EDMS)
Time Latitude Longitude Altitude Speed Heading
2026-05-04 19:29 48.23561 11.55334 1601 ft 0 kts 87°
2026-05-04 19:30 48.23567 11.55345 1605 ft 3 kts 13°
2026-05-04 19:31 48.23594 11.55288 1599 ft 9 kts 297°
2026-05-04 19:31 48.23618 11.55233 1600 ft 4 kts 304°
2026-05-04 19:31 48.23649 11.55188 1598 ft 9 kts 336°
2026-05-04 19:31 48.23712 11.55160 1597 ft 9 kts 353°
2026-05-04 19:32 48.23759 11.55153 1597 ft 5 kts
2026-05-04 19:32 48.23782 11.55154 1597 ft 3 kts 10°
2026-05-04 19:32 48.23803 11.55138 1597 ft 2 kts 232°
2026-05-04 19:32 48.23797 11.55135 1597 ft 0 kts 184°
2026-05-04 19:34 48.23785 11.55163 1597 ft 5 kts 75°
2026-05-04 19:35 48.23799 11.55242 1597 ft 28 kts 75°
2026-05-04 19:35 48.23890 11.55764 1595 ft 72 kts 75°
2026-05-04 19:35 48.24050 11.56606 1673 ft 90 kts 69°
2026-05-04 19:35 48.23983 11.57528 1873 ft 93 kts 123°
2026-05-04 19:36 48.23568 11.58290 2005 ft 99 kts 103°
2026-05-04 19:36 48.23927 11.58968 2085 ft 103 kts 350°
2026-05-04 19:36 48.24110 11.58069 2262 ft 102 kts 254°
2026-05-04 19:36 48.23908 11.57024 2423 ft 107 kts 255°
2026-05-04 19:37 48.23943 11.55885 2588 ft 113 kts 281°
2026-05-04 19:37 48.24062 11.54692 2764 ft 116 kts 278°
2026-05-04 19:37 48.24173 11.53481 2943 ft 118 kts 278°
2026-05-04 19:37 48.24287 11.52273 3117 ft 117 kts 277°
2026-05-04 19:38 48.24402 11.51057 3290 ft 119 kts 278°
2026-05-04 19:38 48.24557 11.49746 3319 ft 138 kts 282°
2026-05-04 19:38 48.24714 11.48285 3336 ft 144 kts 279°
2026-05-04 19:38 48.24851 11.46874 3594 ft 130 kts 278°
2026-05-04 19:39 48.24976 11.45549 3728 ft 127 kts 278°
2026-05-04 19:39 48.25107 11.44239 3876 ft 126 kts 278°
2026-05-04 19:39 48.25230 11.42939 4023 ft 126 kts 277°
2026-05-04 19:39 48.25348 11.41644 4166 ft 124 kts 276°
2026-05-04 19:40 48.25455 11.40380 4308 ft 121 kts 275°
2026-05-04 19:40 48.25569 11.39145 4455 ft 120 kts 276°
2026-05-04 19:40 48.25706 11.37915 4605 ft 120 kts 282°
2026-05-04 19:40 48.25848 11.36673 4747 ft 121 kts 277°
2026-05-04 19:41 48.25963 11.35438 4892 ft 119 kts 276°
2026-05-04 19:41 48.26062 11.34215 5037 ft 117 kts 271°
2026-05-04 19:41 48.26144 11.33006 5182 ft 116 kts 273°
2026-05-04 19:41 48.26271 11.31801 5311 ft 118 kts 281°
2026-05-04 19:42 48.26695 11.30748 5421 ft 121 kts 312°
2026-05-04 19:42 48.27434 11.30153 5539 ft 123 kts 344°
2026-05-04 19:42 48.28279 11.29999 5666 ft 122 kts 349°
2026-05-04 19:42 48.29082 11.29618 5807 ft 120 kts 340°
2026-05-04 19:43 48.29864 11.29192 5955 ft 118 kts 336°
2026-05-04 19:43 48.30612 11.28721 6095 ft 116 kts 334°
2026-05-04 19:43 48.31354 11.28283 6241 ft 113 kts 336°
2026-05-04 19:43 48.32086 11.27870 6385 ft 112 kts 337°
2026-05-04 19:44 48.32815 11.27478 6521 ft 110 kts 335°
2026-05-04 19:44 48.33574 11.27344 6628 ft 113 kts
2026-05-04 19:44 48.34274 11.27847 6737 ft 113 kts 40°
2026-05-04 19:44 48.34673 11.28800 6843 ft 109 kts 75°
2026-05-04 19:45 48.34673 11.29906 6963 ft 105 kts 104°
2026-05-04 19:45 48.34758 11.30997 7075 ft 109 kts 69°
2026-05-04 19:45 48.35141 11.31977 7232 ft 109 kts 62°
2026-05-04 19:45 48.35496 11.33017 7377 ft 115 kts 65°
2026-05-04 19:46 48.35853 11.34126 7537 ft 120 kts 69°
2026-05-04 19:46 48.36214 11.35280 7685 ft 124 kts 69°
2026-05-04 19:46 48.36589 11.36430 7830 ft 123 kts 66°
2026-05-04 19:46 48.36985 11.37546 7960 ft 120 kts 62°
2026-05-04 19:47 48.37396 11.38697 7944 ft 128 kts 65°
2026-05-04 19:47 48.37785 11.39940 7942 ft 132 kts 70°
2026-05-04 19:47 48.38176 11.41186 7945 ft 135 kts 67°
2026-05-04 19:47 48.38611 11.42472 7944 ft 137 kts 65°
2026-05-04 19:48 48.39050 11.43728 7944 ft 139 kts 63°
2026-05-04 19:48 48.39499 11.45037 7945 ft 143 kts 65°
2026-05-04 19:48 48.39932 11.46391 7942 ft 144 kts 67°
2026-05-04 19:48 48.40376 11.47750 7944 ft 145 kts 66°
2026-05-04 19:49 48.40828 11.49112 7945 ft 146 kts 66°
2026-05-04 19:49 48.41280 11.50479 7944 ft 146 kts 66°
2026-05-04 19:49 48.41734 11.51852 7945 ft 146 kts 66°
2026-05-04 19:49 48.42188 11.53224 7944 ft 147 kts 65°
2026-05-04 19:50 48.42643 11.54602 7945 ft 147 kts 65°
2026-05-04 19:50 48.43100 11.55981 7942 ft 147 kts 66°
2026-05-04 19:50 48.43553 11.57361 7944 ft 147 kts 66°
2026-05-04 19:50 48.43855 11.58275 7944 ft 147 kts 66°
2026-05-04 19:51 48.44465 11.60123 7943 ft 147 kts 66°
2026-05-04 19:51 48.44766 11.61035 7942 ft 147 kts 66°
2026-05-04 19:51 48.45202 11.62362 7942 ft 147 kts 66°
2026-05-04 19:51 48.45655 11.63737 7941 ft 146 kts 66°
2026-05-04 19:52 48.46106 11.65107 7942 ft 146 kts 66°
2026-05-04 19:52 48.46560 11.66483 7942 ft 147 kts 66°
2026-05-04 19:52 48.47013 11.67866 7944 ft 147 kts 66°
2026-05-04 19:52 48.47466 11.69249 7944 ft 147 kts 66°
2026-05-04 19:53 48.47920 11.70632 7942 ft 148 kts 66°
2026-05-04 19:53 48.48378 11.72026 7944 ft 149 kts 66°
2026-05-04 19:53 48.48838 11.73422 7936 ft 149 kts 66°
2026-05-04 19:53 48.49292 11.74818 7930 ft 148 kts 66°
2026-05-04 19:54 48.49748 11.76205 7931 ft 147 kts 66°
2026-05-04 19:54 48.50202 11.77587 7929 ft 147 kts 66°
2026-05-04 19:54 48.50654 11.78974 7928 ft 146 kts 66°
2026-05-04 19:54 48.51103 11.80346 7926 ft 146 kts 66°
2026-05-04 19:55 48.51550 11.81718 7927 ft 146 kts 66°
2026-05-04 19:55 48.52001 11.83091 7928 ft 147 kts 66°
2026-05-04 19:55 48.52453 11.84474 7923 ft 148 kts 66°
2026-05-04 19:55 48.52905 11.85861 7920 ft 147 kts 66°
2026-05-04 19:56 48.53351 11.87236 7919 ft 146 kts 66°
2026-05-04 19:56 48.53797 11.88597 7919 ft 145 kts 66°
2026-05-04 19:56 48.54245 11.89982 7922 ft 147 kts 66°
2026-05-04 19:56 48.54697 11.91361 7924 ft 149 kts 66°
2026-05-04 19:57 48.55159 11.92792 7927 ft 151 kts 66°
2026-05-04 19:57 48.55615 11.94183 7921 ft 149 kts 66°
2026-05-04 19:57 48.56078 11.95605 7921 ft 149 kts 66°
2026-05-04 19:57 48.56525 11.96983 7919 ft 148 kts 66°
2026-05-04 19:58 48.56983 11.98394 7920 ft 148 kts 67°
2026-05-04 19:58 48.57431 11.99781 7917 ft 149 kts 66°
2026-05-04 19:58 48.57888 12.01183 7918 ft 149 kts 66°
2026-05-04 19:58 48.58345 12.02600 7915 ft 147 kts 66°
2026-05-04 19:59 48.58789 12.03973 7915 ft 147 kts 66°
2026-05-04 19:59 48.59242 12.05366 7904 ft 148 kts 66°
2026-05-04 19:59 48.59694 12.06762 7903 ft 148 kts 66°
2026-05-04 19:59 48.60144 12.08152 7901 ft 147 kts 66°
2026-05-04 20:00 48.60588 12.09536 7902 ft 146 kts 66°
2026-05-04 20:00 48.61035 12.10915 7904 ft 147 kts 66°
2026-05-04 20:00 48.61487 12.12310 7906 ft 148 kts 66°
2026-05-04 20:00 48.61941 12.13713 7898 ft 148 kts 66°
2026-05-04 20:01 48.62388 12.15108 7899 ft 147 kts 66°
2026-05-04 20:01 48.62833 12.16499 7898 ft 147 kts 66°
2026-05-04 20:01 48.63286 12.17887 7898 ft 147 kts 66°
2026-05-04 20:01 48.63732 12.19282 7898 ft 147 kts 66°
2026-05-04 20:02 48.64182 12.20670 7897 ft 147 kts 66°
2026-05-04 20:02 48.64627 12.22058 7898 ft 147 kts 66°
2026-05-04 20:02 48.65074 12.23444 7896 ft 146 kts 66°
2026-05-04 20:02 48.65491 12.24743 7897 ft 146 kts 67°
2026-05-04 20:03 48.65935 12.26117 7919 ft 146 kts 67°
2026-05-04 20:03 48.66381 12.27534 7866 ft 152 kts 68°
2026-05-04 20:03 48.66841 12.28992 7764 ft 156 kts 67°
2026-05-04 20:03 48.67320 12.30457 7687 ft 156 kts 66°
2026-05-04 20:04 48.67800 12.31935 7602 ft 157 kts 66°
2026-05-04 20:04 48.68274 12.33411 7509 ft 156 kts 66°
2026-05-04 20:04 48.68749 12.34904 7388 ft 158 kts 68°
2026-05-04 20:04 48.69221 12.36410 7290 ft 158 kts 66°
2026-05-04 20:05 48.69705 12.37901 7175 ft 159 kts 66°
2026-05-04 20:05 48.70189 12.39414 7069 ft 160 kts 67°
2026-05-04 20:05 48.70675 12.40941 6936 ft 160 kts 66°
2026-05-04 20:05 48.71159 12.42448 6815 ft 159 kts 66°
2026-05-04 20:06 48.71640 12.43964 6682 ft 160 kts 66°
2026-05-04 20:06 48.72120 12.45474 6581 ft 159 kts 66°
2026-05-04 20:06 48.72600 12.46967 6481 ft 157 kts 66°
2026-05-04 20:06 48.73069 12.48438 6349 ft 157 kts 67°
2026-05-04 20:07 48.73539 12.49932 6236 ft 157 kts 66°
2026-05-04 20:07 48.74022 12.51443 6129 ft 157 kts 65°
2026-05-04 20:07 48.74489 12.52916 6055 ft 155 kts 67°
2026-05-04 20:07 48.74955 12.54391 5990 ft 155 kts 66°
2026-05-04 20:08 48.75425 12.55858 5914 ft 155 kts 66°
2026-05-04 20:08 48.75893 12.57334 5834 ft 155 kts 66°
2026-05-04 20:08 48.76360 12.58805 5783 ft 155 kts 66°
2026-05-04 20:08 48.76825 12.60272 5719 ft 154 kts 66°
2026-05-04 20:09 48.77281 12.61727 5623 ft 153 kts 66°
2026-05-04 20:09 48.77744 12.63180 5491 ft 153 kts 66°
2026-05-04 20:09 48.78202 12.64624 5413 ft 152 kts 66°
2026-05-04 20:09 48.78566 12.66126 5304 ft 152 kts 82°
2026-05-04 20:10 48.78512 12.67696 5218 ft 150 kts 103°
2026-05-04 20:10 48.78310 12.69247 5123 ft 151 kts 101°
2026-05-04 20:10 48.78159 12.70804 5087 ft 149 kts 99°
2026-05-04 20:10 48.78034 12.72356 5026 ft 147 kts 98°
2026-05-04 20:11 48.77900 12.73892 4987 ft 144 kts 99°
2026-05-04 20:11 48.77776 12.75388 4991 ft 143 kts 99°
2026-05-04 20:11 48.77653 12.76853 4991 ft 143 kts 99°
2026-05-04 20:11 48.77527 12.78336 4982 ft 140 kts 99°
2026-05-04 20:12 48.77411 12.79797 4987 ft 140 kts 98°
2026-05-04 20:12 48.77529 12.81269 4965 ft 144 kts 74°
2026-05-04 20:12 48.78070 12.82549 4904 ft 147 kts 48°
2026-05-04 20:12 48.78941 12.83380 4827 ft 151 kts 22°
2026-05-04 20:13 48.79976 12.83577 4752 ft 151 kts 356°
2026-05-04 20:13 48.81000 12.83210 4683 ft 150 kts 344°
2026-05-04 20:13 48.82035 12.83110 4632 ft 151 kts
2026-05-04 20:13 48.83065 12.83315 4541 ft 153 kts
2026-05-04 20:14 48.84127 12.83542 4425 ft 154 kts
2026-05-04 20:14 48.85194 12.83685 4323 ft 154 kts
2026-05-04 20:14 48.86224 12.83330 4209 ft 152 kts 333°
2026-05-04 20:14 48.86966 12.82234 4148 ft 149 kts 302°
2026-05-04 20:15 48.87292 12.80758 4064 ft 148 kts 278°
2026-05-04 20:15 48.87478 12.79242 4049 ft 144 kts 281°
2026-05-04 20:15 48.87683 12.77753 3997 ft 144 kts 281°
2026-05-04 20:15 48.87860 12.76259 3958 ft 143 kts 279°
2026-05-04 20:16 48.88015 12.74780 3896 ft 143 kts 278°
2026-05-04 20:16 48.88167 12.73272 3735 ft 145 kts 280°
2026-05-04 20:16 48.88361 12.71754 3573 ft 147 kts 282°
2026-05-04 20:16 48.88556 12.70213 3362 ft 151 kts 280°
2026-05-04 20:17 48.88720 12.68619 3136 ft 153 kts 279°
2026-05-04 20:17 48.88852 12.67000 2947 ft 154 kts 277°
2026-05-04 20:17 48.88972 12.65373 2759 ft 156 kts 277°
2026-05-04 20:17 48.89089 12.63713 2524 ft 160 kts 278°
2026-05-04 20:18 48.89246 12.62045 2310 ft 157 kts 283°
2026-05-04 20:18 48.89518 12.60467 2156 ft 152 kts 287°
2026-05-04 20:18 48.89785 12.58935 2006 ft 148 kts 287°
2026-05-04 20:18 48.90032 12.57438 1918 ft 144 kts 286°
2026-05-04 20:19 48.90260 12.55956 1779 ft 143 kts 285°
2026-05-04 20:19 48.90463 12.54538 1667 ft 133 kts 284°
2026-05-04 20:19 48.90630 12.53212 1581 ft 122 kts 283°
2026-05-04 20:19 48.90775 12.52024 1521 ft 101 kts 282°
2026-05-04 20:20 48.90872 12.51052 1435 ft 94 kts 277°
2026-05-04 20:20 48.90948 12.50045 1383 ft 99 kts 270°
2026-05-04 20:20 48.90522 12.49346 1344 ft 99 kts 190°
2026-05-04 20:20 48.90018 12.49883 1256 ft 96 kts 96°
2026-05-04 20:21 48.90139 12.50766 1069 ft 79 kts 83°
2026-05-04 20:21 48.90106 12.51471 1057 ft 55 kts 97°
2026-05-04 20:21 48.90109 12.51789 1052 ft 4 kts
2026-05-04 20:22 48.90132 12.51781 1053 ft 6 kts 313°
2026-05-04 20:22 48.90143 12.51681 1055 ft 10 kts 279°
2026-05-04 20:22 48.90152 12.51587 1055 ft 9 kts 277°
2026-05-04 20:22 48.90161 12.51473 1055 ft 12 kts 278°
2026-05-04 20:23 48.90171 12.51351 1056 ft 9 kts 277°
2026-05-04 20:23 48.90178 12.51326 1057 ft 1 kts 329°
2026-05-04 20:23 48.90186 12.51326 1056 ft 1 kts
2026-05-04 20:23 48.90189 12.51326 1056 ft 0 kts